Starlink 3635

operational
NORAD ID: 51981 Int'l Des: 2022-025 Owner: SPXS Country: US Constellation: starlink
LEOCIRCULAR

Über Starlink 3635

Beschreibung wird geladen...

Live-Position

3D-Globus wird geladen...

Nächste Überflüge

Höhenverlauf

Altitude vs Time

uPlot chart will show altitude changes over time

Zweizeiliger Elementsatz

1 51981U 22025AB 26033.83928747 .00000703 00000-0 62248-4 0 9993
2 51981 53.2173 195.5716 0001353 83.8395 276.2751 15.08844120215796
Epoch: 2. Feb. 2026 • Age: 36 hours

Aktueller Status

Höhe 541.2 km
Geschwindigkeit 7.60 km/s
Subsatellitenpunkt 32.34°N, 90.42°E
Startdatum 9. März 2022
Alter 3.9 years
Typ internet

Technische Details

Klassifizierung Payload
Masse 297.00 kg
Trockenmasse 275.00 kg
Gesamtmasse 297.00 kg
Länge 0.20 m
Durchmesser 2.80 m
Spannweite 9.00 m
Form Box + pan
Hersteller SPXS
Bus-Typ Starlink
Phasenstatus In Orbit
Besitzer/Staat SPXS/US

Große Konstellationen

Loading constellations...